TimeCDT,TemperatureF,Dew PointF,Humidity,Sea Level PressureIn,VisibilityMPH,Wind Direction,Wind SpeedMPH,Gust SpeedMPH,PrecipitationIn,Events,Conditions,WindDirDegrees,DateUTC
12:15 AM,45.5,44.8,97,30.13,7.0,Calm,Calm,-,N/A,,Clear,0,2013-08-11 05:15:00
12:35 AM,45.0,44.6,99,30.13,10.0,Calm,Calm,-,N/A,,Clear,0,2013-08-11 05:35:00
12:55 AM,44.8,44.2,98,30.13,2.0,Calm,Calm,-,N/A,,Clear,0,2013-08-11 05:55:00
1:15 AM,44.1,43.7,99,30.13,10.0,Calm,Calm,-,N/A,,Clear,0,2013-08-11 06:15:00
1:35 AM,43.7,43.2,98,30.13,10.0,Calm,Calm,-,N/A,,Clear,0,2013-08-11 06:35:00
1:55 AM,43.2,42.8,99,30.13,5.0,Calm,Calm,-,N/A,,Clear,0,2013-08-11 06:55:00
2:15 AM,43.0,42.6,99,30.13,10.0,Calm,Calm,-,N/A,,Clear,0,2013-08-11 07:15:00
2:35 AM,42.8,42.4,99,30.13,10.0,Calm,Calm,-,N/A,,Clear,0,2013-08-11 07:35:00
2:55 AM,42.6,42.1,98,30.13,10.0,Calm,Calm,-,N/A,,Clear,0,2013-08-11 07:55:00
3:15 AM,42.8,42.4,99,30.14,10.0,Calm,Calm,-,N/A,,Scattered Clouds,0,2013-08-11 08:15:00
3:35 AM,42.6,42.1,98,30.13,10.0,Calm,Calm,-,N/A,,Clear,0,2013-08-11 08:35:00
3:55 AM,42.4,42.1,99,30.14,7.0,Calm,Calm,-,N/A,,Clear,0,2013-08-11 08:55:00
4:15 AM,41.9,41.4,98,30.13,4.0,Calm,Calm,-,N/A,,Clear,0,2013-08-11 09:15:00
4:35 AM,41.7,41.2,98,30.14,0.5,Calm,Calm,-,N/A,Fog,Fog,0,2013-08-11 09:35:00
4:55 AM,41.0,40.6,99,30.13,0.8,Calm,Calm,-,N/A,,Overcast,0,2013-08-11 09:55:00
5:15 AM,40.6,40.5,99,30.13,0.5,Calm,Calm,-,N/A,Fog,Fog,0,2013-08-11 10:15:00
5:35 AM,41.0,40.8,99,30.12,10.0,Calm,Calm,-,N/A,,Clear,0,2013-08-11 10:35:00
5:55 AM,40.5,40.3,99,30.13,0.2,Calm,Calm,-,N/A,Fog,Fog,0,2013-08-11 10:55:00
6:15 AM,40.8,40.6,99,30.12,2.0,Calm,Calm,-,N/A,,Clear,0,2013-08-11 11:15:00
6:35 AM,42.1,42.1,100,30.13,0.8,Calm,Calm,-,N/A,,Mist,0,2013-08-11 11:35:00
6:55 AM,43.7,43.5,99,30.13,10.0,Calm,Calm,-,N/A,,Clear,0,2013-08-11 11:55:00
7:15 AM,46.9,46.8,99,30.12,10.0,Calm,Calm,-,N/A,,Clear,0,2013-08-11 12:15:00
7:35 AM,50.7,50.7,100,30.13,10.0,Calm,Calm,-,N/A,,Clear,0,2013-08-11 12:35:00
7:55 AM,52.9,52.9,100,30.12,10.0,Calm,Calm,-,N/A,,Clear,0,2013-08-11 12:55:00
8:15 AM,55.0,55.0,100,30.12,10.0,Calm,Calm,-,N/A,,Clear,0,2013-08-11 13:15:00
8:35 AM,57.4,56.3,96,30.12,10.0,Calm,Calm,-,N/A,,Clear,0,2013-08-11 13:35:00
8:55 AM,59.2,55.6,88,30.12,10.0,SW,3.5,-,N/A,,Clear,230,2013-08-11 13:55:00
9:15 AM,62.2,55.8,79,30.12,10.0,Calm,Calm,-,N/A,,Clear,0,2013-08-11 14:15:00
9:35 AM,64.4,54.3,70,30.11,10.0,Calm,Calm,-,N/A,,Clear,0,2013-08-11 14:35:00
9:55 AM,64.9,54.7,69,30.11,10.0,Calm,Calm,-,N/A,,Clear,0,2013-08-11 14:55:00
10:15 AM,65.8,54.3,66,30.11,10.0,Calm,Calm,-,N/A,,Clear,0,2013-08-11 15:15:00
10:35 AM,66.4,52.5,61,30.11,10.0,West,4.6,-,N/A,,Scattered Clouds,260,2013-08-11 15:35:00
10:55 AM,67.6,53.8,61,30.11,10.0,WNW,3.5,-,N/A,,Scattered Clouds,300,2013-08-11 15:55:00
11:15 AM,69.8,52.7,54,30.11,10.0,SW,3.5,-,N/A,,Clear,220,2013-08-11 16:15:00
11:35 AM,69.8,50.5,50,30.11,10.0,West,4.6,-,N/A,,Clear,270,2013-08-11 16:35:00
11:55 AM,68.9,51.1,53,30.10,10.0,West,5.8,-,N/A,,Scattered Clouds,280,2013-08-11 16:55:00
12:15 PM,70.9,50.2,48,30.10,10.0,SSW,5.8,-,N/A,,Scattered Clouds,210,2013-08-11 17:15:00
12:35 PM,69.3,50.9,52,30.09,10.0,WSW,4.6,-,N/A,,Mostly Cloudy,240,2013-08-11 17:35:00
12:55 PM,70.7,51.1,50,30.09,10.0,SSW,4.6,-,N/A,,Mostly Cloudy,200,2013-08-11 17:55:00
1:15 PM,71.2,50.7,48,30.09,10.0,West,6.9,-,N/A,,Scattered Clouds,260,2013-08-11 18:15:00
1:35 PM,71.8,50.4,47,30.09,10.0,SW,5.8,-,N/A,,Mostly Cloudy,230,2013-08-11 18:35:00
1:55 PM,70.7,49.5,47,30.08,10.0,WSW,5.8,-,N/A,,Overcast,240,2013-08-11 18:55:00
2:15 PM,68.7,51.4,54,30.08,10.0,WNW,3.5,-,N/A,,Overcast,290,2013-08-11 19:15:00
2:35 PM,68.9,51.3,53,30.08,10.0,NW,3.5,-,N/A,,Overcast,310,2013-08-11 19:35:00
2:55 PM,69.4,50.7,51,30.07,10.0,WNW,4.6,-,N/A,,Overcast,300,2013-08-11 19:55:00
3:15 PM,70.9,51.1,49,30.07,10.0,NNW,5.8,-,N/A,,Overcast,330,2013-08-11 20:15:00
3:35 PM,70.5,50.4,49,30.06,10.0,Calm,Calm,-,N/A,,Overcast,0,2013-08-11 20:35:00
3:55 PM,71.8,49.3,45,30.06,10.0,NNW,4.6,-,N/A,,Mostly Cloudy,340,2013-08-11 20:55:00
4:15 PM,72.9,48.7,42,30.06,10.0,NW,5.8,-,N/A,,Scattered Clouds,310,2013-08-11 21:15:00
4:35 PM,72.0,48.6,43,30.06,10.0,North,4.6,-,N/A,,Mostly Cloudy,350,2013-08-11 21:35:00
4:55 PM,73.4,49.8,43,30.05,10.0,WNW,3.5,-,N/A,,Mostly Cloudy,300,2013-08-11 21:55:00
5:15 PM,72.9,48.7,42,30.05,10.0,Calm,Calm,-,N/A,,Mostly Cloudy,0,2013-08-11 22:15:00
5:35 PM,72.0,50.4,46,30.05,10.0,North,5.8,-,N/A,,Overcast,350,2013-08-11 22:35:00
5:55 PM,70.0,51.8,52,30.05,10.0,NNW,5.8,-,N/A,,Overcast,340,2013-08-11 22:55:00
6:15 PM,70.5,53.6,55,30.05,10.0,North,4.6,-,N/A,,Overcast,350,2013-08-11 23:15:00
6:35 PM,69.4,54.0,58,30.05,10.0,NNW,4.6,-,N/A,,Mostly Cloudy,340,2013-08-11 23:35:00
6:55 PM,70.0,52.9,55,30.04,10.0,NNW,3.5,-,N/A,,Mostly Cloudy,340,2013-08-11 23:55:00
7:15 PM,68.2,53.6,60,30.04,10.0,NNW,3.5,-,N/A,,Mostly Cloudy,340,2013-08-12 00:15:00
7:35 PM,63.1,57.0,80,30.04,10.0,Calm,Calm,-,N/A,,Mostly Cloudy,0,2013-08-12 00:35:00
7:55 PM,61.7,57.4,86,30.04,10.0,Calm,Calm,-,N/A,,Overcast,0,2013-08-12 00:55:00
8:15 PM,59.7,56.5,89,30.04,10.0,Calm,Calm,-,N/A,,Scattered Clouds,0,2013-08-12 01:15:00
8:35 PM,58.3,55.6,91,30.04,10.0,Calm,Calm,-,N/A,,Mostly Cloudy,0,2013-08-12 01:35:00
8:55 PM,58.1,55.8,92,30.04,10.0,Calm,Calm,-,N/A,,Mostly Cloudy,0,2013-08-12 01:55:00
9:15 PM,56.7,55.2,95,30.05,10.0,Calm,Calm,-,N/A,,Scattered Clouds,0,2013-08-12 02:15:00
9:35 PM,54.7,53.4,96,30.05,10.0,Calm,Calm,-,N/A,,Clear,0,2013-08-12 02:35:00
9:55 PM,54.5,53.6,97,30.05,10.0,Calm,Calm,-,N/A,,Clear,0,2013-08-12 02:55:00
10:15 PM,53.2,52.3,97,30.05,10.0,Calm,Calm,-,N/A,,Scattered Clouds,0,2013-08-12 03:15:00
10:35 PM,52.9,52.3,98,30.05,10.0,Calm,Calm,-,N/A,,Scattered Clouds,0,2013-08-12 03:35:00
10:55 PM,52.7,52.2,98,30.04,10.0,Calm,Calm,-,N/A,,Mostly Cloudy,0,2013-08-12 03:55:00
11:35 PM,54.0,53.6,99,30.04,10.0,Calm,Calm,-,N/A,,Overcast,0,2013-08-12 04:35:00